Location: Red Bud (historical)
(37.7759°N, 88.4053°W)
Time: 02:49:51
(UTC+00:00)

ISS - Visible Passes

Search period start: 18 June 2021 00:00
Search period end: 28 June 2021 00:00
Orbit: 417 x 422 km, 51.6° (Epoch: 17 June)

Date Brightness Start Highest point End Pass type
(mag) Time Alt. Az. Time Alt. Az. Time Alt. Az.
23 Jun -1.4 09:56:01 10° S 09:58:22 18° SE 10:00:43 10° E visible
25 Jun -3.4 09:56:43 10° SW 10:00:01 59° SE 10:03:21 10° ENE visible
26 Jun -2.5 09:10:53 19° S 09:12:39 31° SE 09:15:41 10° ENE visible
27 Jun -1.7 08:25:19 18° SE 08:25:20 18° SE 08:27:42 10° E visible
27 Jun -2.9 09:58:40 10° WSW 10:01:54 42° NW 10:05:08 10° NE visible
